STARLINK-32233 (60434 NORAD) Tracking and Keplerian Element Data

This shows tracking and keplerian element data for the satellite.

Feedback or suggestion? Click here.




ElementValue
Catalog60434
NameSTARLINK-32233
Epoch Orbit1078
Epoch Day286.79685689
Epoch Year2024
RAAN79.4138
Inclination53.1614
Eccentricity0.0001158
Argument of Perigee125.6112
Mean Anonmoly234.4997
Mean Motion15.30199675
Decay Rate7.07E-06
L11 60434U 24144K 24286.79685689 .00000707 00000+0 35976-4 0 9999
L22 60434 53.1614 79.4138 0001158 125.6112 234.4997 15.30199675 10784



Live tracking and technical data element details for STARLINK-32233 (NORAD 60434). STARLINK-32233 can be tracked NOW for your location showing map with azimuth and elevation plus other details from your city location.







IsCatalogInMostPopularTable: catalog: 60434, numindb: 8
Update: records affected: 1



GetName: 60434 STARLINK-32233

Hit Count: updated at: Wed, 04 Dec 2024 18:36:41 GMT